sat.trackr.live / text

‹ back to catalog

STARLINK-35198

NORAD 65672 · 2025-211W

PAYLOAD ACTIVE UNKNOWN

§ Identity

Operator
Country
US
Launch date
2025-09-19
Launch site
AFWTR
Launch vehicle
Mass (kg)
RCS (m²)

Purposes: comms

External: N2YO · Heavens-Above · Gunter

§ Orbital elements

Epoch: 2026-05-25T03:58:59.611008Z

Period
95.63 min
Inclination
97.4468°
Eccentricity
0.0002827
Mean motion
15.05729107 rev/d
Perigee alt
547.3 km
Apogee alt
551.2 km
Semi-major
6,927.4 km
B*
2.5727e-3
RAAN
189.1467°
Arg perigee
132.4700°
Mean anomaly
227.6766°
Rev number
3,855

§ Raw data

STARLINK-351981 65672U 25211W   26145.16596772  .00037338  00000+0  25727-2 0  99962 65672  97.4468 189.1467 0002827 132.4700 227.6766 15.05729107 38552

JSON: /api/v1/satellites/65672 · /tle

For live sub-satellite position, see the globe view (requires WebGL).

§ Visibility from observer

Set your observer location to see the next 7 days of passes ≥ 10°. The values pass through the URL so the page stays shareable.

No JS? Fill the form by hand. The geolocation button needs JavaScript.